CW0238 Weather Reports


Display with metric or nautical units.
time (UTC)temp
F
wind
direction
speed
MPH
gust
MPH
rain 1hr
in
rain 24hr
in
rain mn
in
humidity
%
barometer
mb
20260902165105 94 312 1.0 5.0 0.00 0.00 0.00 53 1018.4
20260902164607 93 285 1.0 3.0 0.00 0.00 0.00 52 1018.5
20260902164058 93 346 1.0 7.0 0.00 0.00 0.00 54 1018.5
20260902163557 93 4 2.0 7.0 0.00 0.00 0.00 54 1018.6
20260902163100 93 284 2.0 5.0 0.00 0.00 0.00 54 1018.6
20260902162556 93 319 1.0 4.0 0.00 0.00 0.00 55 1018.7
20260902162056 92 288 1.0 3.0 0.00 0.00 0.00 56 1018.7
20260902161813 92 325 1.0 4.0 0.00 0.00 0.00 57 1018.7
20260902161053 92 326 1.0 4.0 0.00 0.00 0.00 57 1018.7
20260902160552 92 333 1.0 3.0 0.00 0.00 0.00 57 1018.8
20260902160105 91 339 1.0 3.0 0.00 0.00 0.00 58 1018.8
20260902155546 92 323 1.0 3.0 0.00 0.00 0.00 57 1018.9
20260902155312 91 302 1.0 5.0 0.00 0.00 0.00 57 1018.8
20260902154546 91 299 2.0 7.0 0.00 0.00 0.00 58 1018.8
20260902154047 91 288 2.0 7.0 0.00 0.00 0.00 57 1018.9
20260902153545 90 294 1.0 4.0 0.00 0.00 0.00 58 1018.9
20260902153040 90 348 1.0 4.0 0.00 0.00 0.00 61 1018.8
20260902152540 89 321 1.0 4.0 0.00 0.00 0.00 61 1018.9
20260902152042 89 287 1.0 4.0 0.00 0.00 0.00 62 1018.8
20260902151554 89 221 1.0 4.0 0.00 0.00 0.00 63 1018.8
20260902151307 88 357 1.0 3.0 0.00 0.00 0.00 63 1018.8
20260902150539 88 289 2.0 4.0 0.00 0.00 0.00 64 1018.9
20260902150055 88 319 1.0 4.0 0.00 0.00 0.00 65 1019.0
20260902145807 87 231 1.0 4.0 0.00 0.00 0.00 66 1019.0
20260902145034 87 77 1.0 4.0 0.00 0.00 0.00 66 1019.0
20260902144757 87 10 1.0 3.0 0.00 0.00 0.00 68 1019.1
20260902144028 86 335 0.0 3.0 0.00 0.00 0.00 68 1019.1
20260902143527 86 324 0.0 3.0 0.00 0.00 0.00 70 1019.1
20260902143028 85 312 0.0 3.0 0.00 0.00 0.00 70 1019.1
20260902142520 85 313 0.0 2.0 0.00 0.00 0.00 70 1019.0
20260902142018 85 313 0.0 2.0 0.00 0.00 0.00 71 1018.9
20260902141523 84 314 0.0 3.0 0.00 0.00 0.00 73 1019.0
20260902141018 84 313 0.0 3.0 0.00 0.00 0.00 73 1018.9
20260902140518 83 311 0.0 2.0 0.00 0.00 0.00 75 1018.9
20260902140242 82 312 0.0 2.0 0.00 0.00 0.00 77 1019.0
20260902135516 81 311 0.0 2.0 0.00 0.00 0.00 79 1019.0
20260902135019 80 311 0.0 2.0 0.00 0.00 0.00 81 1019.0
20260902134514 80 310 0.0 1.0 0.00 0.00 0.00 82 1019.0
20260902134013 79 310 0.0 1.0 0.00 0.00 0.00 83 1019.1
20260902133514 79 310 0.0 0.0 0.00 0.00 0.00 84 1019.1
20260902133234 78 310 0.0 0.0 0.00 0.00 0.00 85 1019.1
20260902132725 78 310 0.0 0.0 0.00 0.00 0.00 85 1019.0
20260902132007 77 310 0.0 0.0 0.00 0.00 0.00 86 1019.1
20260902131019 77 310 0.0 0.0 0.00 0.00 0.00 87 1019.1
20260902130517 76 310 0.0 0.0 0.00 0.00 0.00 87 1019.0
20260902130003 76 310 0.0 0.0 0.00 0.00 0.00 87 1019.0
20260902125503 76 310 0.0 0.0 0.00 0.00 0.00 88 1019.0
20260902124958 75 310 0.0 0.0 0.00 0.00 0.00 88 1019.0
20260902124458 75 310 0.0 0.0 0.00 0.00 0.00 88 1019.0
20260902123958 75 310 0.0 0.0 0.00 0.00 0.00 89 1019.0
20260902123716 75 310 0.0 0.0 0.00 0.00 0.00 89 1018.9
20260902122954 74 310 0.0 0.0 0.00 0.00 0.00 89 1018.8
20260902122454 74 310 0.0 0.0 0.00 0.00 0.00 89 1018.8
20260902121951 74 310 0.0 0.0 0.00 0.00 0.00 89 1018.8
20260902121450 74 310 0.0 0.0 0.00 0.00 0.00 89 1018.8
20260902120949 73 310 0.0 0.0 0.00 0.00 0.00 89 1018.7
20260902120444 73 310 0.0 0.0 0.00 0.00 0.00 89 1018.7
20260902115944 73 310 0.0 0.0 0.00 0.00 0.00 89 1018.6
20260902115443 73 310 0.0 0.0 0.00 0.00 0.00 89 1018.6
20260902114939 73 310 0.0 0.0 0.00 0.00 0.00 89 1018.6
20260902114440 73 310 0.0 0.0 0.00 0.00 0.00 89 1018.5
20260902113939 73 310 0.0 0.0 0.00 0.00 0.00 89 1018.4
20260902113432 73 310 0.0 0.0 0.00 0.00 0.00 89 1018.3
20260902112935 73 310 0.0 0.0 0.00 0.00 0.00 89 1018.3
20260902112433 73 310 0.0 0.0 0.00 0.00 0.00 89 1018.3
20260902111929 73 310 0.0 0.0 0.00 0.00 0.00 89 1018.3
20260902111440 73 310 0.0 0.0 0.00 0.00 0.00 89 1018.2
20260902110927 73 310 0.0 0.0 0.00 0.00 0.00 89 1018.2
20260902110425 73 310 0.0 0.0 0.00 0.00 0.00 89 1018.2
20260902105926 73 310 0.0 0.0 0.00 0.00 0.00 89 1018.2
20260902105425 73 310 0.0 0.0 0.00 0.00 0.00 89 1018.2
20260902104919 73 310 0.0 0.0 0.00 0.00 0.00 89 1018.1
20260902104420 73 310 0.0 0.0 0.00 0.00 0.00 89 1018.1
20260902103920 73 310 0.0 0.0 0.00 0.00 0.00 89 1018.1
20260902103415 73 310 0.0 0.0 0.00 0.00 0.00 89 1018.0
20260902102915 73 310 0.0 0.0 0.00 0.00 0.00 89 1018.0
20260902102414 73 310 0.0 0.0 0.00 0.00 0.00 89 1017.9
20260902101914 73 310 0.0 0.0 0.00 0.00 0.00 89 1017.9
20260902101413 73 310 0.0 0.0 0.00 0.00 0.00 88 1017.9
20260902101147 73 310 0.0 0.0 0.00 0.00 0.00 88 1017.8
20260902100635 73 310 0.0 0.0 0.00 0.00 0.00 89 1017.8
20260902095911 73 310 0.0 0.0 0.00 0.00 0.00 89 1017.8
20260902095414 73 310 0.0 0.0 0.00 0.00 0.00 89 1017.7
20260902094910 73 310 0.0 0.0 0.00 0.00 0.00 89 1017.7
20260902094406 73 310 0.0 0.0 0.00 0.00 0.00 88 1017.7
20260902093910 73 310 0.0 0.0 0.00 0.00 0.00 88 1017.6
20260902093402 73 310 0.0 0.0 0.00 0.00 0.00 88 1017.6
20260902092900 74 310 0.0 0.0 0.00 0.00 0.00 88 1017.4
20260902092624 74 310 0.0 0.0 0.00 0.00 0.00 88 1017.2
20260902091856 74 310 0.0 0.0 0.00 0.00 0.00 88 1017.3
20260902091355 74 310 0.0 0.0 0.00 0.00 0.00 87 1017.3
20260902090858 74 310 0.0 0.0 0.00 0.00 0.00 87 1017.2
20260902090350 74 310 0.0 0.0 0.00 0.00 0.00 87 1017.2
20260902085849 74 310 0.0 0.0 0.00 0.00 0.00 88 1017.2
20260902085349 74 310 0.0 0.0 0.00 0.00 0.00 88 1017.2
20260902084846 74 310 0.0 0.0 0.00 0.00 0.00 88 1017.2
20260902084345 74 310 0.0 0.0 0.00 0.00 0.00 88 1017.2
20260902083846 74 310 0.0 0.0 0.00 0.00 0.00 88 1017.2
20260902083340 74 310 0.0 0.0 0.00 0.00 0.00 88 1017.1
20260902082838 74 310 0.0 0.0 0.00 0.00 0.00 88 1017.2
20260902082339 74 310 0.0 0.0 0.00 0.00 0.00 87 1017.2
20260902081834 74 310 0.0 0.0 0.00 0.00 0.00 87 1017.2
20260902081332 74 310 0.0 0.0 0.00 0.00 0.00 87 1017.1
20260902080833 74 310 0.0 0.0 0.00 0.00 0.00 87 1017.0
20260902080328 74 310 0.0 0.0 0.00 0.00 0.00 87 1016.9
20260902075827 74 310 0.0 0.0 0.00 0.00 0.00 87 1017.0
20260902075327 74 310 0.0 0.0 0.00 0.00 0.00 88 1017.0
20260902074826 74 310 0.0 0.0 0.00 0.00 0.00 87 1016.8
20260902074548 74 310 0.0 0.0 0.00 0.00 0.00 87 1016.9
20260902073824 74 310 0.0 0.0 0.00 0.00 0.00 87 1016.9
20260902073555 74 310 0.0 0.0 0.00 0.00 0.00 87 1016.9
20260902072820 74 310 0.0 0.0 0.00 0.00 0.00 87 1016.9
20260902072315 74 310 0.0 0.0 0.00 0.00 0.00 87 1016.8
20260902071827 74 310 0.0 0.0 0.00 0.00 0.00 87 1016.9
20260902071538 74 310 0.0 0.0 0.00 0.00 0.00 87 1016.9
20260902070814 74 310 0.0 0.0 0.00 0.00 0.00 87 1016.9
20260902070312 74 310 0.0 0.0 0.00 0.00 0.00 87 1016.9
20260902065813 74 310 0.0 0.0 0.00 0.00 0.00 86 1016.9
20260902065531 74 310 0.0 0.0 0.00 0.00 0.00 86 1016.9
20260902065037 74 310 0.0 0.0 0.00 0.00 0.00 86 1016.9
20260902064310 75 310 0.0 0.0 0.00 0.00 0.00 86 1016.9
20260902064035 75 310 0.0 0.0 0.00 0.00 0.00 86 1017.0
20260902063527 75 310 0.0 0.0 0.00 0.00 0.00 85 1016.9
20260902063032 75 310 0.0 0.0 0.00 0.00 0.00 85 1016.9
20260902062312 75 310 0.0 0.0 0.00 0.00 0.00 85 1017.0
20260902061808 75 310 0.0 0.0 0.00 0.00 0.00 85 1017.1
20260902061307 75 310 0.0 0.0 0.00 0.00 0.00 86 1017.1
20260902060804 75 310 0.0 0.0 0.00 0.00 0.00 86 1017.1
20260902060302 75 310 0.0 0.0 0.00 0.00 0.00 85 1017.2
20260902055800 75 310 0.0 0.0 0.00 0.00 0.00 85 1017.2
20260902055258 75 310 0.0 0.0 0.00 0.00 0.00 85 1017.1
20260902054758 75 310 0.0 0.0 0.00 0.00 0.00 84 1017.1
20260902054255 75 310 0.0 0.0 0.00 0.00 0.00 84 1017.1
20260902053754 76 310 0.0 0.0 0.00 0.00 0.00 84 1017.0
20260902053248 75 310 0.0 0.0 0.00 0.00 0.00 84 1017.0
20260902052747 76 310 0.0 0.0 0.00 0.00 0.00 84 1017.1
20260902052246 76 310 0.0 0.0 0.00 0.00 0.00 83 1017.1
20260902051744 76 310 0.0 0.0 0.00 0.00 0.00 84 1017.1
20260902051246 76 310 0.0 0.0 0.00 0.00 0.00 84 1017.0
20260902050746 76 310 0.0 0.0 0.00 0.00 0.00 84 1017.0
20260902050245 76 310 0.0 0.0 0.00 0.00 0.00 84 1017.0
20260902045742 76 310 0.0 0.0 0.00 0.00 0.00 84 1016.9
20260902044736 76 310 0.0 0.0 0.00 0.00 0.00 83 1017.0
20260902044234 76 310 0.0 0.0 0.00 0.00 0.00 83 1016.9
20260902043737 76 310 0.0 0.0 0.00 0.00 0.00 83 1016.9
20260902043231 76 310 0.0 0.0 0.00 0.00 0.00 83 1017.0
20260902042732 76 310 0.0 0.0 0.00 0.00 0.00 82 1017.0
20260902042231 77 310 0.0 0.0 0.00 0.00 0.00 81 1017.0
20260902041728 77 310 0.0 0.0 0.00 0.00 0.00 81 1017.0
20260902041232 76 310 0.0 0.0 0.00 0.00 0.00 82 1016.9
20260902040724 77 310 0.0 0.0 0.00 0.00 0.00 82 1016.9
20260902040224 77 310 0.0 0.0 0.00 0.00 0.00 81 1016.8
20260902035724 77 310 0.0 0.0 0.00 0.00 0.00 81 1016.8
20260902035223 77 310 0.0 0.0 0.00 0.00 0.00 80 1016.8
20260902034724 77 310 0.0 0.0 0.00 0.00 0.00 81 1016.9
20260902034221 77 310 0.0 0.0 0.00 0.00 0.00 80 1016.8
20260902033722 77 310 0.0 0.0 0.00 0.00 0.00 80 1016.9
20260902033222 77 310 0.0 0.0 0.00 0.00 0.00 80 1017.0
20260902032722 78 310 0.0 0.0 0.00 0.00 0.00 80 1017.0
20260902032225 78 310 0.0 0.0 0.00 0.00 0.00 80 1017.0
20260902031716 78 310 0.0 0.0 0.00 0.00 0.00 79 1017.1
20260902031441 78 310 0.0 0.0 0.00 0.00 0.00 79 1017.0
20260902030715 78 310 0.0 0.0 0.00 0.00 0.00 78 1017.1
20260902030215 78 310 0.0 0.0 0.00 0.00 0.00 79 1017.0
20260902025711 79 310 0.0 0.0 0.00 0.00 0.00 78 1017.0
20260902025212 79 310 0.0 0.0 0.00 0.00 0.00 78 1017.0
20260902024711 79 310 0.0 0.0 0.00 0.00 0.00 77 1017.0
20260902024211 79 310 0.0 0.0 0.00 0.00 0.00 78 1017.0
20260902023709 79 310 0.0 0.0 0.00 0.00 0.00 78 1017.0
20260902023212 79 310 0.0 0.0 0.00 0.00 0.00 77 1017.0
20260902022705 80 310 0.0 0.0 0.00 0.00 0.00 77 1016.9
20260902022217 79 310 0.0 0.0 0.00 0.00 0.00 77 1016.9
20260902021705 80 310 0.0 0.0 0.00 0.00 0.00 76 1017.0
20260902021424 80 310 0.0 0.0 0.00 0.00 0.00 75 1016.9
20260902020933 80 310 0.0 0.0 0.00 0.00 0.00 74 1016.9
20260902020432 81 310 0.0 0.0 0.00 0.00 0.00 75 1016.9
20260902015700 81 310 0.0 0.0 0.00 0.00 0.00 74 1016.9
20260902015202 81 310 0.0 0.0 0.00 0.00 0.00 74 1016.9
20260902014654 81 310 0.0 0.0 0.00 0.00 0.00 75 1016.9
20260902014152 81 310 0.0 0.0 0.00 0.00 0.00 75 1016.9
20260902013656 81 310 0.0 0.0 0.00 0.00 0.00 75 1016.9
20260902013150 81 310 0.0 0.0 0.00 0.00 0.00 75 1016.8
20260902012150 82 310 0.0 0.0 0.00 0.00 0.00 72 1016.7
20260902011648 82 310 0.0 0.0 0.00 0.00 0.00 72 1016.6
20260902011148 83 310 0.0 1.0 0.00 0.00 0.00 73 1016.6
20260902010648 83 310 0.0 1.0 0.00 0.00 0.00 72 1016.5
20260902010148 83 310 0.0 0.0 0.00 0.00 0.00 72 1016.4
20260902005645 83 310 0.0 0.0 0.00 0.00 0.00 72 1016.4
20260902005146 84 310 0.0 0.0 0.00 0.00 0.00 72 1016.4
20260902004643 84 310 0.0 0.0 0.00 0.00 0.00 71 1016.4
20260902004144 85 310 0.0 0.0 0.00 0.00 0.00 71 1016.3
20260902003643 85 310 0.0 0.0 0.00 0.00 0.00 70 1016.3
20260902003144 85 310 0.0 1.0 0.00 0.00 0.00 70 1016.3
20260902002644 85 310 0.0 1.0 0.00 0.00 0.00 70 1016.3
20260902002142 86 310 0.0 1.0 0.00 0.00 0.00 69 1016.3
20260902001645 87 310 0.0 1.0 0.00 0.00 0.00 68 1016.3
20260902001136 87 310 0.0 1.0 0.00 0.00 0.00 67 1016.3
20260902000635 88 310 0.0 1.0 0.00 0.00 0.00 67 1016.3
20260902000354 88 310 0.0 0.0 0.00 0.00 0.00 67 1016.3
20260901235636 88 310 0.0 0.0 0.00 0.00 0.00 66 1016.4
20260901235138 89 310 0.0 0.0 0.00 0.00 0.00 65 1016.3
20260901234636 89 310 0.0 0.0 0.00 0.00 0.00 63 1016.4
20260901233635 89 310 0.0 0.0 0.00 0.00 0.00 59 1016.4
20260901233136 90 310 0.0 0.0 0.00 0.00 0.00 57 1016.5
20260901232634 91 310 0.0 0.0 0.00 0.00 0.00 55 1016.6
20260901232400 91 310 0.0 0.0 0.00 0.00 0.00 54 1016.5
20260901231632 92 310 0.0 0.0 0.00 0.00 0.00 52 1016.5
20260901231131 93 310 0.0 1.0 0.00 0.00 0.00 49 1016.6
20260901230850 93 310 0.0 1.0 0.00 0.00 0.00 48 1016.5
20260901230126 93 310 0.0 1.0 0.00 0.00 0.00 46 1016.5
20260901225850 94 310 0.0 1.0 0.00 0.00 0.00 46 1016.5
20260901225126 94 310 0.0 1.0 0.00 0.00 0.00 46 1016.6
20260901224620 94 310 0.0 1.0 0.00 0.00 0.00 44 1016.5
20260901224122 94 310 0.0 1.0 0.00 0.00 0.00 45 1016.6
20260901223622 95 310 0.0 1.0 0.00 0.00 0.00 45 1016.5
20260901223120 95 310 0.0 2.0 0.00 0.00 0.00 45 1016.5
20260901222620 95 310 0.0 2.0 0.00 0.00 0.00 44 1016.5
20260901222118 95 310 0.0 2.0 0.00 0.00 0.00 45 1016.5
20260901221616 95 307 0.0 2.0 0.00 0.00 0.00 44 1016.4
20260901221116 95 307 0.0 2.0 0.00 0.00 0.00 43 1016.4
20260901220614 95 317 0.0 1.0 0.00 0.00 0.00 43 1016.4
20260901220114 96 319 0.0 2.0 0.00 0.00 0.00 43 1016.4
20260901215838 96 319 0.0 2.0 0.00 0.00 0.00 42 1016.3
20260901215113 96 325 0.0 3.0 0.00 0.00 0.00 42 1016.3
20260901214613 96 327 1.0 3.0 0.00 0.00 0.00 41 1016.2
20260901214335 97 328 1.0 3.0 0.00 0.00 0.00 41 1016.3
20260901213607 96 48 0.0 2.0 0.00 0.00 0.00 42 1016.2
20260901213105 96 275 0.0 2.0 0.00 0.00 0.00 41 1016.3
20260901212617 96 275 1.0 3.0 0.00 0.00 0.00 42 1016.3
20260901212104 96 285 0.0 3.0 0.00 0.00 0.00 43 1016.3
20260901211821 96 277 1.0 2.0 0.00 0.00 0.00 41 1016.3
20260901211104 97 215 1.0 4.0 0.00 0.00 0.00 42 1016.4
20260901210604 98 303 1.0 4.0 0.00 0.00 0.00 38 1016.4
20260901210107 98 315 1.0 4.0 0.00 0.00 0.00 39 1016.5
20260901205831 97 348 1.0 4.0 0.00 0.00 0.00 40 1016.5
20260901205058 97 321 1.0 4.0 0.00 0.00 0.00 40 1016.5
20260901204557 98 320 1.0 4.0 0.00 0.00 0.00 41 1016.6
20260901204056 98 315 1.0 4.0 0.00 0.00 0.00 41 1016.7
20260901203554 98 313 1.0 4.0 0.00 0.00 0.00 41 1016.7
20260901203054 97 246 1.0 6.0 0.00 0.00 0.00 40 1016.7
20260901202820 98 281 2.0 6.0 0.00 0.00 0.00 38 1016.7
20260901202050 98 316 2.0 5.0 0.00 0.00 0.00 41 1016.8
20260901201549 98 220 2.0 7.0 0.00 0.00 0.00 42 1016.9
20260901201049 98 342 1.0 7.0 0.00 0.00 0.00 41 1016.9
20260901200543 97 221 1.0 6.0 0.00 0.00 0.00 42 1017.0
20260901200056 97 233 2.0 8.0 0.00 0.00 0.00 41 1017.1
20260901195544 98 252 1.0 8.0 0.00 0.00 0.00 40 1017.0
20260901194554 97 204 1.0 4.0 0.00 0.00 0.00 42 1017.1
20260901194045 96 249 1.0 2.0 0.00 0.00 0.00 46 1017.1
20260901193540 96 287 1.0 3.0 0.00 0.00 0.00 44 1017.2
20260901193307 97 290 1.0 4.0 0.00 0.00 0.00 43 1017.2
20260901192540 98 307 1.0 4.0 0.00 0.00 0.00 41 1017.3
20260901192037 97 348 1.0 4.0 0.00 0.00 0.00 45 1017.3
20260901191538 96 294 0.0 2.0 0.00 0.00 0.00 45 1017.3
20260901191036 96 292 1.0 5.0 0.00 0.00 0.00 45 1017.4
20260901190817 96 292 1.0 5.0 0.00 0.00 0.00 43 1017.6
20260901190033 96 355 1.0 4.0 0.00 0.00 0.00 47 1017.6
20260901185032 97 254 2.0 7.0 0.00 0.00 0.00 44 1017.8
20260901184531 96 319 1.0 7.0 0.00 0.00 0.00 44 1017.9
20260901184032 96 286 2.0 7.0 0.00 0.00 0.00 46 1017.9
20260901183530 96 190 2.0 7.0 0.00 0.00 0.00 46 1018.0
20260901183029 95 311 2.0 7.0 0.00 0.00 0.00 46 1018.0
20260901182529 95 279 1.0 5.0 0.00 0.00 0.00 47 1018.1
20260901182029 95 273 1.0 5.0 0.00 0.00 0.00 47 1018.1
20260901181543 95 275 1.0 4.0 0.00 0.00 0.00 48 1018.1
20260901181301 95 73 1.0 4.0 0.00 0.00 0.00 47 1018.2
20260901180530 95 296 1.0 7.0 0.00 0.00 0.00 45 1018.2
20260901180028 95 269 2.0 7.0 0.00 0.00 0.00 49 1018.3
20260901175522 94 250 1.0 4.0 0.00 0.00 0.00 50 1018.2
20260901175023 93 303 2.0 6.0 0.00 0.00 0.00 49 1018.4
20260901174522 95 333 2.0 6.0 0.00 0.00 0.00 48 1018.4
20260901174022 94 312 2.0 6.0 0.00 0.00 0.00 49 1018.4
20260901173521 94 29 2.0 6.0 0.00 0.00 0.00 48 1018.4
20260901173021 94 349 2.0 6.0 0.00 0.00 0.00 50 1018.5
20260901172522 95 277 2.0 7.0 0.00 0.00 0.00 49 1018.5
20260901172020 94 267 2.0 7.0 0.00 0.00 0.00 50 1018.5
20260901171519 94 305 2.0 5.0 0.00 0.00 0.00 53 1018.5
20260901171241 94 323 1.0 4.0 0.00 0.00 0.00 54 1018.5
20260901170513 93 302 2.0 7.0 0.00 0.00 0.00 54 1018.6
20260901170013 93 268 1.0 7.0 0.00 0.00 0.00 54 1018.7
20260901165509 93 159 1.0 4.0 0.00 0.00 0.00 55 1018.7